SCP
0 0 0 0 0 0 0 0 0 0 0 0 0 0 0 0 0 0 0 0 0 0
0 0 0 0 0 0 0 0 0 0 0 0 0 0 0 0 0 0 0 0 0 0
0 0 0 0 0 0 0 0 0 0 0 0 0 0 0 0 0 0 0 0 0 0
0 0 0 0 0 0 0 0 0 0 0 0 0 0 0 0 0 0 0 0 0 0
0 0 0 0 0 0 0 0 0 0 0 0 0 0 0 0 0 0 0 0 0 0
0 0 0 0 0 0 0 0 0 0 0 0 0 0 0 0 0 0 0 0 0 0
0 0 0 0 0 0 0 0 0 0 0 0 0 0 0 0 0 0 0 0 0 0
0 0 0 0 0 0 0 0 0 0 0 0 0 0 0 0 0 0 0 0 0 0
0 0 0 0 0 0 0 0 0 0 0 0 0 0 0 0 0 0 0 0 0 0
0 0 0 0 0 0 0 0 0 0 0 0 0 0 0 0 0 0 0 0 0 0
0 0 0 0 0 0 0 0 0 0 0 0 0 0 0 0 0 0 0 0 0 0
0 0 0 0 0 0 0 0 0 0 0 0 0 0 0 0 0 0 0 0 0 0
0 0 0 0 0 0 0 0 0 0 0 0 0 0 0 0 0 0 0 0 0 0
0 0 0 0 0 0 0 0 0 0 0 0 0 0 0 0 0 0 0 0 0 0
Wind_Speed_500mb
33 37 41 44 44 41 46 52 49 44 39 36 35 34 34 31 29 29 24 22 19 12
31 36 34 41 42 40 42 46 44 42 35 35 34 37 38 36 32 27 24 25 23 13
32 36 34 37 41 36 43 49 38 44 33 33 33 39 43 40 32 26 25 23 22 19
36 34 35 38 40 35 42 50 47 45 39 37 36 37 43 43 38 33 28 26 22 20
39 37 34 35 41 38 42 45 45 47 41 38 39 38 40 42 38 36 33 35 24 24
33 39 36 35 38 37 39 40 41 43 39 38 40 40 43 49 51 41 32 33 32 28
27 36 38 34 35 32 36 37 40 40 35 34 37 43 44 44 47 44 38 33 31 32
20 24 32 33 30 30 30 34 37 35 30 31 31 39 43 47 50 47 44 36 34 37
15 23 27 31 26 29 28 29 32 33 28 28 23 29 34 38 40 42 46 38 30 33
23 18 26 28 24 27 27 30 29 31 27 26 26 25 30 32 34 37 38 44 42 35
23 12 17 30 26 25 24 30 28 25 28 27 26 25 27 31 29 31 34 37 39 30
18 16 16 22 17 22 23 25 29 25 21 24 23 24 24 24 29 28 31 33 30 29
16 20 11 14 18 26 29 29 27 29 26 23 23 21 21 22 22 27 29 28 27 24
7 15 13 12 14 22 25 29 28 27 30 29 26 26 26 25 24 28 28 31 31 32
Wind_Direction_500mb
36 33 31 23 15 14 16 17 12 12 17 17 14 13 13 11 11 8 5 6 8 9
31 27 25 22 18 17 16 12 7 9 7 12 13 18 18 14 12 11 20 29 25 33
28 25 26 20 15 16 14 9 12 8 13 19 18 17 17 16 20 17 23 25 24 37
24 23 23 22 19 21 14 16 17 11 22 22 22 19 22 29 29 27 25 24 26 29
22 21 20 21 23 22 17 23 23 20 20 23 23 22 25 24 21 24 28 35 41 40
20 17 18 19 18 20 19 22 20 21 27 33 32 40 44 38 37 36 33 25 42 45
22 14 13 14 14 18 17 22 25 29 37 40 44 46 42 40 41 40 41 36 36 37
25 9 359 4 9 14 16 21 24 31 39 38 48 47 43 41 41 39 39 37 44 42
358 351 2 11 12 14 12 15 22 25 28 26 27 26 39 35 29 30 33 29 12 4
352 351 16 7 10 14 14 11 17 21 23 20 22 27 19 11 20 21 24 26 26 27
355 344 9 10 6 15 21 15 13 14 19 20 17 13 15 13 18 23 17 22 24 34
359 14 355 349 360 5 4 4 4 4 2 9 11 11 12 12 12 13 19 23 24 25
345 351 3 340 351 354 354 352 346 349 351 352 350 346 353 2 353 2 3 9 10 5
327 353 4 30 6 349 346 342 339 336 330 340 340 340 327 336 342 339 351 350 351 350
Wind_Speed_850mb
33 37 41 44 44 41 46 52 49 44 39 36 35 34 34 31 29 29 24 22 19 12
31 36 34 41 42 40 42 46 44 42 35 35 34 37 38 36 32 27 24 25 23 13
32 36 34 37 41 36 43 49 38 44 33 33 33 39 43 40 32 26 25 23 22 19
36 34 35 38 40 35 42 50 47 45 39 37 36 37 43 43 38 33 28 26 22 20
39 37 34 35 41 38 42 45 45 47 41 38 39 38 40 42 38 36 33 35 24 24
33 39 36 35 38 37 39 40 41 43 39 38 40 40 43 49 51 41 32 33 32 28
27 36 38 34 35 32 36 37 40 40 35 34 37 43 44 44 47 44 38 33 31 32
20 24 32 33 30 30 30 34 37 35 30 31 31 39 43 47 50 47 44 36 34 37
15 23 27 31 26 29 28 29 32 33 28 28 23 29 34 38 40 42 46 38 30 33
23 18 26 28 24 27 27 30 29 31 27 26 26 25 30 32 34 37 38 44 42 35
23 12 17 30 26 25 24 30 28 25 28 27 26 25 27 31 29 31 34 37 39 30
18 16 16 22 17 22 23 25 29 25 21 24 23 24 24 24 29 28 31 33 30 29
16 20 11 14 18 26 29 29 27 29 26 23 23 21 21 22 22 27 29 28 27 24
7 15 13 12 14 22 25 29 28 27 30 29 26 26 26 25 24 28 28 31 31 32
Wind_Direction_850mb
36 33 31 23 15 14 16 17 12 12 17 17 14 13 13 11 11 8 5 6 8 9
31 27 25 22 18 17 16 12 7 9 7 12 13 18 18 14 12 11 20 29 25 33
28 25 26 20 15 16 14 9 12 8 13 19 18 17 17 16 20 17 23 25 24 37
24 23 23 22 19 21 14 16 17 11 22 22 22 19 22 29 29 27 25 24 26 29
22 21 20 21 23 22 17 23 23 20 20 23 23 22 25 24 21 24 28 35 41 40
20 17 18 19 18 20 19 22 20 21 27 33 32 40 44 38 37 36 33 25 42 45
22 14 13 14 14 18 17 22 25 29 37 40 44 46 42 40 41 40 41 36 36 37
25 9 359 4 9 14 16 21 24 31 39 38 48 47 43 41 41 39 39 37 44 42
358 351 2 11 12 14 12 15 22 25 28 26 27 26 39 35 29 30 33 29 12 4
352 351 16 7 10 14 14 11 17 21 23 20 22 27 19 11 20 21 24 26 26 27
355 344 9 10 6 15 21 15 13 14 19 20 17 13 15 13 18 23 17 22 24 34
359 14 355 349 360 5 4 4 4 4 2 9 11 11 12 12 12 13 19 23 24 25
345 351 3 340 351 354 354 352 346 349 351 352 350 346 353 2 353 2 3 9 10 5
327 353 4 30 6 349 346 342 339 336 330 340 340 340 327 336 342 339 351 350 351 350